| time (UTC) | temp F | wind direction | speed MPH | gust MPH | rain 1hr in | rain 24hr in | rain mn in | humidity % | barometer mb |
| 20260507003525 | 58 | 198 | 3.0 | 9.0 | 0.00 | 0.00 | 0.00 | 78 | 1019.8 |
| 20260507003039 | 58 | 170 | 4.0 | 10.0 | 0.00 | 0.00 | 0.00 | 79 | 1019.9 |
| 20260507002526 | 58 | 229 | 5.0 | 10.0 | 0.00 | 0.00 | 0.00 | 78 | 1019.8 |
| 20260507002025 | 58 | 193 | 5.0 | 10.0 | 0.00 | 0.00 | 0.00 | 77 | 1019.8 |
| 20260507001537 | 58 | 134 | 5.0 | 10.0 | 0.00 | 0.00 | 0.00 | 78 | 1019.7 |
| 20260507001024 | 58 | 134 | 4.0 | 10.0 | 0.00 | 0.00 | 0.00 | 78 | 1019.7 |
| 20260507000525 | 58 | 198 | 5.0 | 10.0 | 0.00 | 0.00 | 0.00 | 79 | 1019.8 |
| 20260507000044 | 58 | 214 | 5.0 | 10.0 | 0.00 | 0.00 | 0.00 | 78 | 1019.8 |
| 20260506235526 | 58 | 200 | 4.0 | 10.0 | 0.00 | 0.00 | 0.00 | 78 | 1019.8 |
| 20260506235024 | 58 | 172 | 6.0 | 12.0 | 0.00 | 0.00 | 0.00 | 80 | 1019.9 |
| 20260506234552 | 58 | 203 | 5.0 | 12.0 | 0.00 | 0.00 | 0.00 | 79 | 1019.8 |
| 20260506234025 | 58 | 150 | 6.0 | 12.0 | 0.00 | 0.00 | 0.00 | 79 | 1019.9 |
| 20260506233524 | 59 | 217 | 7.0 | 11.0 | 0.00 | 0.00 | 0.00 | 76 | 1019.9 |
| 20260506233048 | 59 | 157 | 6.0 | 11.0 | 0.00 | 0.00 | 0.00 | 76 | 1019.9 |
| 20260506232524 | 59 | 155 | 6.0 | 11.0 | 0.00 | 0.00 | 0.00 | 75 | 1020.0 |
| 20260506232024 | 59 | 178 | 7.0 | 15.0 | 0.00 | 0.00 | 0.00 | 75 | 1019.9 |
| 20260506231537 | 59 | 146 | 7.0 | 15.0 | 0.00 | 0.00 | 0.00 | 77 | 1019.9 |
| 20260506231026 | 59 | 201 | 7.0 | 15.0 | 0.00 | 0.00 | 0.00 | 75 | 1020.0 |
| 20260506230526 | 59 | 141 | 9.0 | 15.0 | 0.00 | 0.00 | 0.00 | 77 | 1020.1 |
| 20260506230038 | 59 | 131 | 6.0 | 14.0 | 0.00 | 0.00 | 0.00 | 76 | 1020.0 |
| 20260506225525 | 58 | 172 | 5.0 | 14.0 | 0.00 | 0.00 | 0.00 | 76 | 1020.0 |
| 20260506225027 | 58 | 191 | 6.0 | 12.0 | 0.00 | 0.00 | 0.00 | 76 | 1020.1 |
| 20260506224543 | 58 | 214 | 6.0 | 13.0 | 0.00 | 0.00 | 0.00 | 76 | 1020.0 |
| 20260506224025 | 58 | 167 | 7.0 | 13.0 | 0.00 | 0.00 | 0.00 | 76 | 1020.1 |
| 20260506223524 | 58 | 178 | 6.0 | 12.0 | 0.00 | 0.00 | 0.00 | 77 | 1020.1 |
| 20260506223042 | 58 | 123 | 6.0 | 13.0 | 0.00 | 0.00 | 0.00 | 77 | 1020.0 |
| 20260506222524 | 58 | 162 | 6.0 | 13.0 | 0.00 | 0.00 | 0.00 | 78 | 1020.1 |
| 20260506222025 | 58 | 205 | 7.0 | 12.0 | 0.00 | 0.00 | 0.00 | 79 | 1020.2 |
| 20260506221539 | 58 | 193 | 5.0 | 13.0 | 0.00 | 0.00 | 0.00 | 77 | 1020.2 |
| 20260506221024 | 58 | 148 | 8.0 | 13.0 | 0.00 | 0.00 | 0.00 | 78 | 1020.2 |
| 20260506220524 | 58 | 198 | 5.0 | 12.0 | 0.00 | 0.00 | 0.00 | 78 | 1020.3 |
| 20260506220039 | 58 | 207 | 5.0 | 12.0 | 0.00 | 0.00 | 0.00 | 79 | 1020.2 |
| 20260506215524 | 58 | 152 | 5.0 | 13.0 | 0.00 | 0.00 | 0.00 | 77 | 1020.2 |
| 20260506215024 | 57 | 211 | 6.0 | 13.0 | 0.00 | 0.00 | 0.00 | 78 | 1020.2 |
| 20260506214538 | 57 | 193 | 6.0 | 13.0 | 0.00 | 0.00 | 0.00 | 78 | 1020.2 |
| 20260506214027 | 58 | 212 | 6.0 | 13.0 | 0.00 | 0.00 | 0.00 | 78 | 1020.2 |
| 20260506213526 | 58 | 205 | 6.0 | 13.0 | 0.00 | 0.00 | 0.00 | 78 | 1020.3 |
| 20260506213038 | 58 | 154 | 6.0 | 12.0 | 0.00 | 0.00 | 0.00 | 78 | 1020.3 |
| 20260506212524 | 58 | 198 | 7.0 | 15.0 | 0.00 | 0.00 | 0.00 | 77 | 1020.3 |
| 20260506212028 | 57 | 171 | 6.0 | 15.0 | 0.00 | 0.00 | 0.00 | 78 | 1020.2 |
| 20260506211541 | 57 | 233 | 8.0 | 15.0 | 0.00 | 0.00 | 0.00 | 80 | 1020.3 |
| 20260506211025 | 57 | 229 | 7.0 | 15.0 | 0.00 | 0.00 | 0.00 | 79 | 1020.2 |
| 20260506210525 | 57 | 123 | 5.0 | 13.0 | 0.00 | 0.00 | 0.00 | 79 | 1020.2 |
| 20260506210040 | 57 | 153 | 6.0 | 13.0 | 0.00 | 0.00 | 0.00 | 78 | 1020.3 |
| 20260506205528 | 57 | 205 | 7.0 | 13.0 | 0.00 | 0.00 | 0.00 | 78 | 1020.3 |
| 20260506205024 | 57 | 200 | 6.0 | 11.0 | 0.00 | 0.00 | 0.00 | 78 | 1020.4 |
| 20260506204541 | 57 | 208 | 5.0 | 12.0 | 0.00 | 0.00 | 0.00 | 78 | 1020.3 |
| 20260506204024 | 57 | 212 | 7.0 | 12.0 | 0.00 | 0.00 | 0.00 | 79 | 1020.3 |
| 20260506203527 | 57 | 136 | 7.0 | 12.0 | 0.00 | 0.00 | 0.00 | 78 | 1020.3 |
| 20260506203040 | 57 | 184 | 7.0 | 12.0 | 0.00 | 0.00 | 0.00 | 79 | 1020.2 |
| 20260506202525 | 56 | 186 | 6.0 | 12.0 | 0.00 | 0.00 | 0.00 | 78 | 1020.3 |
| 20260506202024 | 56 | 172 | 4.0 | 11.0 | 0.00 | 0.00 | 0.00 | 78 | 1020.2 |
| 20260506201542 | 56 | 172 | 4.0 | 9.0 | 0.00 | 0.00 | 0.00 | 78 | 1020.3 |
| 20260506201023 | 56 | 165 | 4.0 | 12.0 | 0.00 | 0.00 | 0.00 | 78 | 1020.3 |
| 20260506200524 | 56 | 114 | 5.0 | 13.0 | 0.00 | 0.00 | 0.00 | 79 | 1020.3 |
| 20260506200042 | 56 | 214 | 6.0 | 13.0 | 0.00 | 0.00 | 0.00 | 78 | 1020.3 |
| 20260506195529 | 56 | 201 | 7.0 | 13.0 | 0.00 | 0.00 | 0.00 | 78 | 1020.3 |
| 20260506195025 | 56 | 205 | 5.0 | 12.0 | 0.00 | 0.00 | 0.00 | 78 | 1020.2 |
| 20260506194539 | 56 | 143 | 6.0 | 12.0 | 0.00 | 0.00 | 0.00 | 78 | 1020.2 |
| 20260506194025 | 56 | 187 | 4.0 | 15.0 | 0.00 | 0.00 | 0.00 | 79 | 1020.1 |
| 20260506193526 | 56 | 192 | 5.0 | 15.0 | 0.00 | 0.00 | 0.00 | 79 | 1020.2 |
| 20260506193037 | 55 | 109 | 5.0 | 12.0 | 0.00 | 0.00 | 0.00 | 80 | 1020.2 |
| 20260506192527 | 55 | 198 | 5.0 | 13.0 | 0.00 | 0.00 | 0.00 | 79 | 1020.2 |
| 20260506192029 | 55 | 191 | 7.0 | 13.0 | 0.00 | 0.00 | 0.00 | 80 | 1020.2 |
| 20260506191545 | 55 | 186 | 8.0 | 13.0 | 0.00 | 0.00 | 0.00 | 80 | 1020.1 |
| 20260506191023 | 55 | 186 | 5.0 | 14.0 | 0.00 | 0.00 | 0.00 | 80 | 1020.1 |
| 20260506190522 | 55 | 165 | 6.0 | 14.0 | 0.00 | 0.00 | 0.00 | 79 | 1020.2 |
| 20260506190043 | 55 | 238 | 6.0 | 14.0 | 0.00 | 0.00 | 0.00 | 80 | 1020.1 |
| 20260506185525 | 55 | 204 | 7.0 | 14.0 | 0.00 | 0.00 | 0.00 | 80 | 1020.1 |
| 20260506185025 | 55 | 155 | 6.0 | 14.0 | 0.00 | 0.00 | 0.00 | 79 | 1020.1 |
| 20260506184546 | 55 | 153 | 6.0 | 13.0 | 0.00 | 0.00 | 0.00 | 80 | 1020.1 |
| 20260506184026 | 55 | 213 | 5.0 | 16.0 | 0.00 | 0.00 | 0.00 | 80 | 1020.1 |
| 20260506183526 | 55 | 172 | 6.0 | 16.0 | 0.00 | 0.00 | 0.00 | 80 | 1020.0 |
| 20260506183039 | 55 | 158 | 6.0 | 11.0 | 0.00 | 0.00 | 0.00 | 81 | 1020.0 |
| 20260506182525 | 55 | 204 | 5.0 | 14.0 | 0.00 | 0.00 | 0.00 | 80 | 1020.1 |
| 20260506182024 | 55 | 176 | 7.0 | 14.0 | 0.00 | 0.00 | 0.00 | 80 | 1020.1 |
| 20260506181539 | 55 | 150 | 4.0 | 14.0 | 0.00 | 0.00 | 0.00 | 81 | 1020.1 |
| 20260506181027 | 55 | 212 | 7.0 | 14.0 | 0.00 | 0.00 | 0.00 | 80 | 1020.0 |
| 20260506180523 | 55 | 150 | 6.0 | 13.0 | 0.00 | 0.00 | 0.00 | 81 | 1020.0 |
| 20260506180047 | 55 | 191 | 7.0 | 14.0 | 0.00 | 0.00 | 0.00 | 81 | 1019.9 |
| 20260506175525 | 54 | 209 | 7.0 | 14.0 | 0.00 | 0.00 | 0.00 | 81 | 1019.9 |
| 20260506175025 | 54 | 152 | 7.0 | 14.0 | 0.00 | 0.00 | 0.00 | 81 | 1019.9 |
| 20260506174541 | 54 | 139 | 7.0 | 13.0 | 0.00 | 0.00 | 0.00 | 83 | 1019.9 |
| 20260506174030 | 54 | 171 | 6.0 | 13.0 | 0.00 | 0.00 | 0.00 | 81 | 1019.8 |
| 20260506173526 | 54 | 195 | 6.0 | 11.0 | 0.00 | 0.00 | 0.00 | 81 | 1019.8 |
| 20260506173117 | 54 | 250 | 3.0 | 10.0 | 0.00 | 0.00 | 0.00 | 82 | 1019.7 |
| 20260506172525 | 54 | 140 | 4.0 | 12.0 | 0.00 | 0.00 | 0.00 | 81 | 1019.9 |
| 20260506172026 | 54 | 192 | 6.0 | 12.0 | 0.00 | 0.00 | 0.00 | 82 | 1019.8 |
| 20260506171539 | 54 | 168 | 5.0 | 12.0 | 0.00 | 0.00 | 0.00 | 81 | 1019.8 |
| 20260506171026 | 54 | 225 | 5.0 | 12.0 | 0.00 | 0.00 | 0.00 | 82 | 1019.8 |
| 20260506170526 | 54 | 210 | 6.0 | 12.0 | 0.00 | 0.00 | 0.00 | 82 | 1019.8 |
| 20260506170041 | 54 | 246 | 5.0 | 11.0 | 0.00 | 0.00 | 0.00 | 83 | 1019.8 |
| 20260506165525 | 53 | 197 | 4.0 | 11.0 | 0.00 | 0.00 | 0.00 | 84 | 1019.8 |
| 20260506165023 | 53 | 224 | 4.0 | 11.0 | 0.00 | 0.00 | 0.00 | 84 | 1019.9 |
| 20260506164541 | 53 | 179 | 4.0 | 9.0 | 0.00 | 0.00 | 0.00 | 85 | 1019.8 |
| 20260506164027 | 53 | 223 | 3.0 | 9.0 | 0.00 | 0.00 | 0.00 | 85 | 1019.7 |
| 20260506163532 | 53 | 176 | 3.0 | 9.0 | 0.00 | 0.00 | 0.00 | 86 | 1019.9 |
| 20260506163042 | 53 | 212 | 3.0 | 7.0 | 0.00 | 0.00 | 0.00 | 86 | 1019.7 |
| 20260506162524 | 53 | 155 | 4.0 | 9.0 | 0.00 | 0.00 | 0.00 | 87 | 1019.8 |
| 20260506162028 | 53 | 140 | 3.0 | 9.0 | 0.00 | 0.00 | 0.00 | 88 | 1019.7 |
| 20260506161540 | 53 | 160 | 3.0 | 10.0 | 0.00 | 0.00 | 0.00 | 87 | 1019.7 |
| 20260506161024 | 53 | 199 | 4.0 | 10.0 | 0.00 | 0.00 | 0.00 | 87 | 1019.7 |
| 20260506160524 | 53 | 202 | 4.0 | 9.0 | 0.00 | 0.00 | 0.00 | 89 | 1019.7 |
| 20260506160040 | 53 | 150 | 4.0 | 9.0 | 0.00 | 0.00 | 0.00 | 89 | 1019.6 |
| 20260506155524 | 53 | 136 | 4.0 | 9.0 | 0.00 | 0.00 | 0.00 | 89 | 1019.5 |
| 20260506155025 | 53 | 211 | 4.0 | 9.0 | 0.00 | 0.00 | 0.00 | 90 | 1019.5 |
| 20260506154545 | 53 | 160 | 4.0 | 8.0 | 0.00 | 0.00 | 0.00 | 89 | 1019.5 |
| 20260506154024 | 53 | 142 | 3.0 | 9.0 | 0.00 | 0.00 | 0.00 | 89 | 1019.4 |
| 20260506153526 | 53 | 136 | 5.0 | 9.0 | 0.00 | 0.00 | 0.00 | 88 | 1019.5 |
| 20260506153035 | 53 | 141 | 2.0 | 9.0 | 0.00 | 0.00 | 0.00 | 89 | 1019.5 |
| 20260506152524 | 53 | 242 | 5.0 | 10.0 | 0.00 | 0.00 | 0.00 | 88 | 1019.5 |
| 20260506152024 | 53 | 139 | 5.0 | 10.0 | 0.00 | 0.00 | 0.00 | 88 | 1019.6 |
| 20260506151542 | 53 | 201 | 5.0 | 9.0 | 0.00 | 0.00 | 0.00 | 88 | 1019.5 |
| 20260506151027 | 53 | 190 | 4.0 | 9.0 | 0.00 | 0.00 | 0.00 | 88 | 1019.5 |
| 20260506150526 | 53 | 174 | 6.0 | 9.0 | 0.00 | 0.00 | 0.00 | 88 | 1019.5 |
| 20260506150043 | 53 | 184 | 3.0 | 9.0 | 0.00 | 0.00 | 0.00 | 88 | 1019.5 |
| 20260506145525 | 53 | 146 | 4.0 | 8.0 | 0.00 | 0.00 | 0.00 | 89 | 1019.6 |
| 20260506145025 | 53 | 213 | 3.0 | 7.0 | 0.00 | 0.00 | 0.00 | 88 | 1019.4 |
| 20260506144542 | 53 | 240 | 3.0 | 8.0 | 0.00 | 0.00 | 0.00 | 89 | 1019.3 |
| 20260506144024 | 53 | 200 | 4.0 | 11.0 | 0.00 | 0.00 | 0.00 | 89 | 1019.2 |
| 20260506143545 | 53 | 192 | 5.0 | 11.0 | 0.00 | 0.00 | 0.00 | 90 | 1019.2 |
| 20260506143040 | 53 | 164 | 4.0 | 10.0 | 0.00 | 0.00 | 0.00 | 90 | 1019.3 |
| 20260506142523 | 52 | 165 | 4.0 | 10.0 | 0.00 | 0.00 | 0.00 | 89 | 1019.4 |
| 20260506142023 | 52 | 193 | 5.0 | 8.0 | 0.00 | 0.00 | 0.00 | 89 | 1019.3 |
| 20260506141542 | 52 | 162 | 3.0 | 7.0 | 0.00 | 0.00 | 0.00 | 90 | 1019.1 |
| 20260506141027 | 53 | 168 | 4.0 | 7.0 | 0.00 | 0.00 | 0.00 | 90 | 1019.2 |
| 20260506140525 | 53 | 211 | 5.0 | 7.0 | 0.00 | 0.00 | 0.00 | 90 | 1019.2 |
| 20260506140042 | 53 | 171 | 4.0 | 7.0 | 0.00 | 0.00 | 0.00 | 90 | 1019.1 |
| 20260506135523 | 52 | 207 | 2.0 | 8.0 | 0.00 | 0.00 | 0.00 | 89 | 1019.0 |
| 20260506135024 | 52 | 217 | 4.0 | 9.0 | 0.00 | 0.00 | 0.00 | 90 | 1019.0 |
| 20260506134541 | 52 | 210 | 4.0 | 9.0 | 0.00 | 0.00 | 0.00 | 89 | 1019.0 |
| 20260506134025 | 53 | 221 | 4.0 | 6.0 | 0.00 | 0.00 | 0.00 | 89 | 1019.0 |
| 20260506133525 | 52 | 205 | 3.0 | 8.0 | 0.00 | 0.00 | 0.00 | 89 | 1018.9 |
| 20260506133040 | 52 | 137 | 3.0 | 8.0 | 0.00 | 0.00 | 0.00 | 89 | 1018.9 |
| 20260506132528 | 52 | 169 | 4.0 | 7.0 | 0.00 | 0.00 | 0.00 | 89 | 1018.9 |
| 20260506132024 | 53 | 157 | 3.0 | 7.0 | 0.00 | 0.00 | 0.00 | 89 | 1018.8 |
| 20260506131546 | 53 | 162 | 4.0 | 8.0 | 0.00 | 0.00 | 0.00 | 89 | 1018.9 |
| 20260506131024 | 53 | 202 | 3.0 | 9.0 | 0.00 | 0.00 | 0.00 | 89 | 1018.8 |
| 20260506130524 | 53 | 172 | 5.0 | 9.0 | 0.00 | 0.00 | 0.00 | 89 | 1018.8 |
| 20260506130051 | 53 | 209 | 4.0 | 8.0 | 0.00 | 0.00 | 0.00 | 89 | 1018.9 |
| 20260506125525 | 52 | 177 | 3.0 | 10.0 | 0.00 | 0.00 | 0.00 | 89 | 1018.7 |
| 20260506125029 | 52 | 134 | 5.0 | 10.0 | 0.00 | 0.00 | 0.00 | 89 | 1018.6 |
| 20260506124551 | 52 | 131 | 3.0 | 7.0 | 0.00 | 0.00 | 0.00 | 89 | 1018.2 |
| 20260506124024 | 52 | 158 | 3.0 | 6.0 | 0.00 | 0.00 | 0.00 | 90 | 1018.3 |
| 20260506123525 | 52 | 181 | 4.0 | 10.0 | 0.00 | 0.00 | 0.00 | 90 | 1018.5 |
| 20260506123042 | 52 | 169 | 5.0 | 10.0 | 0.00 | 0.00 | 0.00 | 90 | 1018.5 |
| 20260506122525 | 52 | 198 | 4.0 | 9.0 | 0.00 | 0.00 | 0.00 | 90 | 1018.5 |
| 20260506122024 | 52 | 215 | 3.0 | 10.0 | 0.00 | 0.00 | 0.00 | 89 | 1018.4 |
| 20260506121537 | 52 | 170 | 4.0 | 10.0 | 0.00 | 0.00 | 0.00 | 90 | 1018.5 |
| 20260506121024 | 52 | 139 | 5.0 | 8.0 | 0.00 | 0.00 | 0.00 | 90 | 1018.4 |
| 20260506120527 | 52 | 149 | 5.0 | 11.0 | 0.00 | 0.00 | 0.00 | 89 | 1018.4 |
| 20260506120040 | 52 | 230 | 5.0 | 11.0 | 0.00 | 0.00 | 0.00 | 90 | 1018.4 |
| 20260506115526 | 52 | 160 | 6.0 | 11.0 | 0.00 | 0.00 | 0.00 | 89 | 1018.3 |
| 20260506115024 | 52 | 187 | 4.0 | 10.0 | 0.00 | 0.00 | 0.00 | 90 | 1018.3 |
| 20260506114542 | 52 | 154 | 5.0 | 10.0 | 0.00 | 0.00 | 0.00 | 89 | 1018.4 |
| 20260506114024 | 52 | 210 | 4.0 | 12.0 | 0.00 | 0.00 | 0.00 | 89 | 1018.3 |
| 20260506113525 | 52 | 188 | 5.0 | 12.0 | 0.00 | 0.00 | 0.00 | 89 | 1018.3 |
| 20260506113049 | 52 | 226 | 7.0 | 12.0 | 0.00 | 0.00 | 0.00 | 89 | 1018.0 |
| 20260506112525 | 52 | 203 | 5.0 | 9.0 | 0.00 | 0.00 | 0.00 | 89 | 1018.0 |
| 20260506112024 | 52 | 135 | 4.0 | 8.0 | 0.00 | 0.00 | 0.00 | 89 | 1017.9 |
| 20260506111538 | 52 | 162 | 4.0 | 8.0 | 0.00 | 0.00 | 0.00 | 89 | 1017.9 |
| 20260506111024 | 53 | 224 | 5.0 | 9.0 | 0.00 | 0.00 | 0.00 | 89 | 1018.0 |
| 20260506110526 | 53 | 201 | 4.0 | 9.0 | 0.00 | 0.00 | 0.00 | 89 | 1018.0 |
| 20260506110043 | 53 | 203 | 5.0 | 9.0 | 0.00 | 0.00 | 0.00 | 89 | 1018.0 |
| 20260506105524 | 53 | 176 | 4.0 | 9.0 | 0.00 | 0.00 | 0.00 | 88 | 1018.0 |
| 20260506105026 | 53 | 165 | 4.0 | 9.0 | 0.00 | 0.00 | 0.00 | 89 | 1018.0 |
| 20260506104543 | 53 | 150 | 3.0 | 9.0 | 0.00 | 0.00 | 0.00 | 88 | 1017.9 |
| 20260506104024 | 53 | 210 | 5.0 | 9.0 | 0.00 | 0.00 | 0.00 | 89 | 1017.9 |
| 20260506103524 | 53 | 191 | 3.0 | 9.0 | 0.00 | 0.00 | 0.00 | 89 | 1017.9 |
| 20260506103045 | 53 | 155 | 4.0 | 9.0 | 0.00 | 0.00 | 0.00 | 88 | 1017.9 |
| 20260506102524 | 53 | 146 | 5.0 | 9.0 | 0.00 | 0.00 | 0.00 | 88 | 1017.8 |
| 20260506102025 | 53 | 198 | 6.0 | 10.0 | 0.00 | 0.00 | 0.00 | 88 | 1017.7 |
| 20260506101551 | 53 | 219 | 5.0 | 10.0 | 0.00 | 0.00 | 0.00 | 88 | 1017.7 |
| 20260506101024 | 53 | 172 | 6.0 | 10.0 | 0.00 | 0.00 | 0.00 | 88 | 1017.7 |
| 20260506100525 | 53 | 183 | 5.0 | 9.0 | 0.00 | 0.00 | 0.00 | 87 | 1017.7 |
| 20260506100059 | 53 | 210 | 5.0 | 9.0 | 0.00 | 0.00 | 0.00 | 88 | 1017.7 |
| 20260506095525 | 53 | 223 | 4.0 | 8.0 | 0.00 | 0.00 | 0.00 | 87 | 1017.5 |
| 20260506095028 | 53 | 131 | 5.0 | 8.0 | 0.00 | 0.00 | 0.00 | 88 | 1017.5 |
| 20260506094536 | 53 | 203 | 4.0 | 8.0 | 0.00 | 0.00 | 0.00 | 88 | 1017.5 |
| 20260506094026 | 53 | 183 | 5.0 | 9.0 | 0.00 | 0.00 | 0.00 | 87 | 1017.4 |
| 20260506093526 | 53 | 203 | 4.0 | 9.0 | 0.00 | 0.00 | 0.00 | 87 | 1017.4 |
| 20260506093042 | 53 | 204 | 4.0 | 9.0 | 0.00 | 0.00 | 0.00 | 87 | 1017.4 |
| 20260506092523 | 53 | 214 | 5.0 | 8.0 | 0.00 | 0.00 | 0.00 | 88 | 1017.4 |
| 20260506092029 | 53 | 143 | 5.0 | 8.0 | 0.00 | 0.00 | 0.00 | 88 | 1017.3 |
| 20260506091537 | 53 | 179 | 5.0 | 8.0 | 0.00 | 0.00 | 0.00 | 87 | 1017.4 |
| 20260506091028 | 53 | 119 | 5.0 | 8.0 | 0.00 | 0.00 | 0.00 | 88 | 1017.4 |
| 20260506090525 | 53 | 113 | 4.0 | 12.0 | 0.00 | 0.00 | 0.00 | 87 | 1017.4 |
| 20260506090042 | 53 | 192 | 4.0 | 12.0 | 0.00 | 0.00 | 0.00 | 87 | 1017.2 |
| 20260506085526 | 53 | 233 | 3.0 | 8.0 | 0.00 | 0.00 | 0.00 | 87 | 1017.3 |
| 20260506085026 | 54 | 147 | 4.0 | 7.0 | 0.00 | 0.00 | 0.00 | 88 | 1017.3 |
| 20260506084559 | 53 | 213 | 4.0 | 8.0 | 0.00 | 0.00 | 0.00 | 87 | 1017.4 |
| 20260506084023 | 53 | 194 | 4.0 | 8.0 | 0.00 | 0.00 | 0.00 | 87 | 1017.4 |
| 20260506083527 | 53 | 169 | 5.0 | 10.0 | 0.00 | 0.00 | 0.00 | 88 | 1017.3 |
| 20260506083039 | 53 | 171 | 5.0 | 10.0 | 0.00 | 0.00 | 0.00 | 89 | 1017.1 |
| 20260506082526 | 53 | 213 | 3.0 | 5.0 | 0.00 | 0.00 | 0.00 | 88 | 1017.2 |
| 20260506082028 | 53 | 162 | 2.0 | 4.0 | 0.00 | 0.00 | 0.00 | 88 | 1017.2 |
| 20260506081541 | 53 | 167 | 2.0 | 5.0 | 0.00 | 0.00 | 0.00 | 88 | 1017.1 |
| 20260506081027 | 53 | 143 | 2.0 | 5.0 | 0.00 | 0.00 | 0.00 | 88 | 1017.0 |
| 20260506080523 | 53 | 207 | 2.0 | 6.0 | 0.00 | 0.00 | 0.00 | 88 | 1017.0 |
| 20260506073527 | 53 | 141 | 1.0 | 4.0 | 0.00 | 0.00 | 0.00 | 87 | 1016.8 |
| 20260506073045 | 53 | 144 | 1.0 | 6.0 | 0.00 | 0.00 | 0.00 | 87 | 1016.7 |
| 20260506072526 | 53 | 151 | 2.0 | 6.0 | 0.00 | 0.00 | 0.00 | 87 | 1016.8 |
| 20260506072026 | 53 | 112 | 3.0 | 6.0 | 0.00 | 0.00 | 0.00 | 87 | 1016.6 |
| 20260506071537 | 53 | 227 | 3.0 | 7.0 | 0.00 | 0.00 | 0.00 | 87 | 1016.6 |
| 20260506071028 | 54 | 149 | 3.0 | 7.0 | 0.00 | 0.00 | 0.00 | 87 | 1016.4 |
| 20260506070529 | 53 | 226 | 3.0 | 7.0 | 0.00 | 0.00 | 0.00 | 87 | 1016.5 |
| 20260506062024 | 55 | 131 | 2.0 | 8.0 | 0.00 | 0.00 | 0.00 | 85 | 1016.1 |
| 20260506061539 | 55 | 120 | 2.0 | 9.0 | 0.00 | 0.00 | 0.00 | 84 | 1016.0 |
| 20260506061028 | 55 | 215 | 3.0 | 9.0 | 0.00 | 0.00 | 0.00 | 84 | 1016.0 |
| 20260506060529 | 55 | 108 | 4.0 | 9.0 | 0.00 | 0.00 | 0.00 | 84 | 1016.1 |
| 20260506051026 | 56 | 139 | 3.0 | 8.0 | 0.00 | 0.00 | 0.00 | 81 | 1015.8 |
| 20260506050524 | 57 | 156 | 2.0 | 7.0 | 0.00 | 0.00 | 0.00 | 81 | 1015.7 |
| 20260506045025 | 57 | 143 | 4.0 | 10.0 | 0.00 | 0.00 | 0.00 | 80 | 1015.6 |
| 20260506044622 | 57 | 198 | 6.0 | 10.0 | 0.00 | 0.00 | 0.00 | 80 | 1015.7 |
| 20260506044026 | 58 | 205 | 5.0 | 12.0 | 0.00 | 0.00 | 0.00 | 80 | 1015.7 |
| 20260506043525 | 58 | 175 | 5.0 | 12.0 | 0.00 | 0.00 | 0.00 | 81 | 1015.6 |
| 20260506043037 | 58 | 191 | 5.0 | 12.0 | 0.00 | 0.00 | 0.00 | 80 | 1015.6 |
| 20260506042525 | 58 | 161 | 3.0 | 5.0 | 0.00 | 0.00 | 0.00 | 80 | 1015.6 |
| 20260506042025 | 58 | 173 | 2.0 | 6.0 | 0.00 | 0.00 | 0.00 | 80 | 1015.5 |
| 20260506041553 | 58 | 155 | 2.0 | 7.0 | 0.00 | 0.00 | 0.00 | 80 | 1015.4 |
| 20260506041030 | 59 | 217 | 2.0 | 7.0 | 0.00 | 0.00 | 0.00 | 80 | 1015.4 |
| 20260506040525 | 59 | 155 | 2.0 | 5.0 | 0.00 | 0.00 | 0.00 | 80 | 1015.3 |
| 20260506040040 | 59 | 153 | 2.0 | 5.0 | 0.00 | 0.00 | 0.00 | 80 | 1015.3 |
| 20260506035522 | 59 | 143 | 1.0 | 3.0 | 0.00 | 0.00 | 0.00 | 81 | 1015.2 |
| 20260506035025 | 59 | 160 | 1.0 | 3.0 | 0.00 | 0.00 | 0.00 | 80 | 1015.1 |
| 20260506034605 | 59 | 153 | 1.0 | 3.0 | 0.00 | 0.00 | 0.00 | 80 | 1015.1 |
| 20260506034026 | 59 | 155 | 0.0 | 2.0 | 0.00 | 0.00 | 0.00 | 80 | 1014.9 |
| 20260506033525 | 60 | 155 | 0.0 | 3.0 | 0.00 | 0.00 | 0.00 | 79 | 1014.9 |
| 20260506033037 | 60 | 155 | 0.0 | 3.0 | 0.00 | 0.00 | 0.00 | 79 | 1014.8 |
| 20260506032525 | 60 | 147 | 1.0 | 3.0 | 0.00 | 0.00 | 0.00 | 78 | 1014.7 |
| 20260506032025 | 60 | 136 | 2.0 | 6.0 | 0.00 | 0.00 | 0.00 | 78 | 1014.6 |
| 20260506031535 | 60 | 159 | 2.0 | 6.0 | 0.00 | 0.00 | 0.00 | 78 | 1014.6 |
| 20260506031026 | 61 | 206 | 2.0 | 6.0 | 0.00 | 0.00 | 0.00 | 78 | 1014.6 |
| 20260506030525 | 61 | 194 | 3.0 | 8.0 | 0.00 | 0.00 | 0.00 | 77 | 1014.6 |
| 20260506030041 | 61 | 214 | 3.0 | 8.0 | 0.00 | 0.00 | 0.00 | 76 | 1014.5 |
| 20260506025525 | 61 | 215 | 4.0 | 8.0 | 0.00 | 0.00 | 0.00 | 76 | 1014.5 |
| 20260506025025 | 62 | 215 | 5.0 | 8.0 | 0.00 | 0.00 | 0.00 | 75 | 1014.5 |
| 20260506024542 | 62 | 204 | 5.0 | 9.0 | 0.00 | 0.00 | 0.00 | 76 | 1014.5 |
| 20260506024025 | 62 | 195 | 6.0 | 9.0 | 0.00 | 0.00 | 0.00 | 76 | 1014.4 |
| 20260506023525 | 63 | 169 | 6.0 | 9.0 | 0.00 | 0.00 | 0.00 | 75 | 1014.4 |
| 20260506023059 | 64 | 150 | 5.0 | 10.0 | 0.00 | 0.00 | 0.00 | 72 | 1014.4 |
| 20260506022525 | 64 | 199 | 5.0 | 10.0 | 0.00 | 0.00 | 0.00 | 73 | 1014.3 |
| 20260506022026 | 65 | 158 | 6.0 | 10.0 | 0.00 | 0.00 | 0.00 | 71 | 1014.5 |
| 20260506021536 | 65 | 186 | 4.0 | 8.0 | 0.00 | 0.00 | 0.00 | 70 | 1014.5 |
| 20260506021026 | 66 | 214 | 3.0 | 10.0 | 0.00 | 0.00 | 0.00 | 69 | 1014.4 |
| 20260506020526 | 66 | 189 | 4.0 | 10.0 | 0.00 | 0.00 | 0.00 | 69 | 1014.4 |
| 20260506020046 | 66 | 188 | 6.0 | 10.0 | 0.00 | 0.00 | 0.00 | 70 | 1014.4 |
| 20260506015528 | 65 | 216 | 7.0 | 9.0 | 0.00 | 0.00 | 0.00 | 72 | 1014.4 |
| 20260506015029 | 66 | 214 | 5.0 | 9.0 | 0.00 | 0.00 | 0.00 | 71 | 1014.4 |
| 20260506014540 | 64 | 207 | 6.0 | 10.0 | 0.00 | 0.00 | 0.00 | 74 | 1014.3 |
| 20260506014024 | 65 | 207 | 7.0 | 10.0 | 0.00 | 0.00 | 0.00 | 73 | 1014.3 |
| 20260506013526 | 65 | 210 | 6.0 | 10.0 | 0.00 | 0.00 | 0.00 | 72 | 1014.3 |
| 20260506013041 | 67 | 200 | 5.0 | 8.0 | 0.00 | 0.00 | 0.00 | 69 | 1014.4 |
| 20260506012525 | 68 | 212 | 3.0 | 8.0 | 0.00 | 0.00 | 0.00 | 68 | 1014.4 |
| 20260506012026 | 67 | 240 | 4.0 | 8.0 | 0.00 | 0.00 | 0.00 | 68 | 1014.4 |
| 20260506011538 | 67 | 120 | 4.0 | 9.0 | 0.00 | 0.00 | 0.00 | 68 | 1014.3 |
| 20260506011025 | 67 | 205 | 4.0 | 9.0 | 0.00 | 0.00 | 0.00 | 68 | 1014.3 |
| 20260506010525 | 67 | 214 | 3.0 | 8.0 | 0.00 | 0.00 | 0.00 | 67 | 1014.4 |
| 20260506010042 | 67 | 228 | 3.0 | 9.0 | 0.00 | 0.00 | 0.00 | 68 | 1014.4 |
| 20260506005524 | 67 | 196 | 4.0 | 9.0 | 0.00 | 0.00 | 0.00 | 68 | 1014.5 |
| 20260506005025 | 67 | 181 | 6.0 | 10.0 | 0.00 | 0.00 | 0.00 | 70 | 1014.4 |
| 20260506004600 | 66 | 195 | 5.0 | 11.0 | 0.00 | 0.00 | 0.00 | 70 | 1014.5 |
| 20260506004023 | 66 | 214 | 6.0 | 11.0 | 0.00 | 0.00 | 0.00 | 69 | 1014.5 |